Location: Mouss�
(47.9236°N, 1.2701°W)
Time: 03:50:25
(UTC+00:00)

Cosmos 2360 Rocket - Pass Details

Date: 03 March 2021
Orbit: 832 x 846 km, 71.0° (Epoch: 17 April)

Event Time Altitude Azimuth Distance (km) Brightness Sun altitude
Rises 18:36:54 0° 180° (S) 3,374 5.3 -8.2°
Reaches altitude 10° 18:39:29 10° 172° (S) 2,446 4.5 -8.6°
Maximum altitude 18:44:35 37° 107° (ESE) 1,277 2.7 -9.5°
Drops below altitude 10° 18:49:45 10° 41° (NE) 2,471 4.3 -10.3°
Sets 18:52:21 0° 34° (NNE) 3,412 5.0 -10.8°
